Weather in Seredkina

Russia / Irkutsk Oblast     53°26′19″N   103°24′16″E
temp.,
°C
wind,
m/s
gust,
m/s
humid.,
%
clouds,
%
prec.,
mm/h
press.,
hPa
HPBL,
m
22 january, sat
sat2223:00−22ene1110069 0.0 10369
02:00−24ne1110093 0.0 10379
05:00−26ene1110090 0.0 103710
08:00−25ene11100100 0.1 103715
11:00−18nne1194100 0.0 103671
14:00−15n1193100 0.1 1034137
17:00−15nnw1295100 0.1 103468
20:00−14nw1296100 0.4 103478
23 january, sun
sun2323:00−13nw1197100 0.5 103467
02:00−13wnw1197100 1.1 103448
05:00−13w1197100 0.6 103336
08:00−13w1197100 1.1 103322
11:00−12wnw1394100 0.4 1034191
14:00−11wnw2391100 0.7 1033373
17:00−12wnw1296100 0.2 103347
20:00−14wsw1197100 0.4 103418
24 january, mon
mon2423:00−14wsw1197100 0.2 103520
02:00−15wsw1198100 0.4 103413
05:00−15wsw1197100 0.2 103414
08:00−15w119899 0.4 103418
11:00−14nw2395100 0.2 1035196
14:00−12nw349093 0.3 1034375
17:00−17nw119997 0.0 10359
20:00−22wsw0110092 0.0 10379
25 january, tue
tue2523:00−24se00100100 0.0 10399
02:00−24w00100100 0.1 103910
05:00−24w00100100 0.0 103915
08:00−22ne00100100 0.1 103922
11:00−18nw1196100 0.1 103970
14:00−15nw1193100 0.1 1037147
17:00−18nnw0098100 0.0 10379
20:00−20sse01100100 0.0 10399
26 january, wed
wed2623:00−19e009996 0.0 103913
02:00−21n0010092 0.1 10409
05:00−23nne00100100 0.0 10419
08:00−23n01100100 0.0 104212
11:00−20nnw12100100 0.0 104290
14:00−17nw229397 0.0 1041165
17:00−21wnw1110097 0.0 10419
20:00−24ssw00100100 0.0 10439